King Cove AP, King Cove, AK, AK

9:06 AM AKDT on June 29, 2017 (GMT -0800)
King Cove AP, King Cove, AK

Weather History for PAVC - December, 2013

Change the Weather History Date:

Tuesday, December 24, 2013

  Actual Average (PACD) Record (PACD)
Temperature  
Mean Temperature 37 °F -  
Max Temperature 39 °F 37 °F 54 °F (1973)
Min Temperature 35 °F 28 °F 4 °F (2006)
Degree Days  
Heating Degree Days 28    
Moisture  
Dew Point 35 °F    
Average Humidity 90    
Maximum Humidity 93    
Minimum Humidity 86    
Precipitation  
Precipitation 0.54 in - - ()
Sea Level Pressure  
Sea Level Pressure 29.53 in    
Wind  
Wind Speed 21 mph (ENE)    
Max Wind Speed 25 mph    
Max Gust Speed 38 mph    
Visibility 4 miles    
Events Rain , Snow    
Averages and records for this station are not official NWS values.
T = Trace of Precipitation, MM = Missing Value Source: NWS Daily Summary

Daily Weather History Graph

Daily Weather History Graph

Search for Another Location

Airport or City:

Trip Planner

Search our weather history database for the weather conditions in past years. The results will help you decide how hot, cold, wet, or windy it might be!

Date:

Astronomy

Dec. 24, 2013 Rise Set
Actual Time 10:14 AM AKST 5:23 PM AKST
Civil Twilight 9:28 AM AKST 6:09 PM AKST
Nautical Twilight 8:40 AM AKST 6:57 PM AKST
Astronomical Twilight 7:56 AM AKST 7:41 PM AKST
Moon 12:48 AM AKST (12/24) 1:05 PM AKST (12/24)
Length of Visible Light 8h 40m
Length of Day
7h 09m
Waning Gibbous, 57% of the Moon is Illuminated
Dec 24
Waning Gibbous
Dec 25
Last Quarter
Jan 1
New
Jan 7
First Quarter
Jan 15
Full

Hourly Weather History & Observations

Time (AKST) Temp. Windchill Dew Point Humidity Pressure Visibility Wind Dir Wind Speed Gust Speed Precip Events Conditions
12:11 AM 39.2 °F 29.0 °F 37.4 °F 93% 29.46 in 2.0 mi ENE 21.9 mph 33.4 mph 0.02 in   Overcast
12:29 AM 39.2 °F 28.3 °F 37.4 °F 93% 29.45 in 1.5 mi ENE 25.3 mph 32.2 mph 0.03 in   Overcast
12:43 AM 39.2 °F 28.7 °F 37.4 °F 93% 29.45 in 1.5 mi ENE 23.0 mph 34.5 mph 0.07 in   Overcast
12:56 AM 39.9 °F 29.7 °F 36.9 °F 89% 29.47 in 2.0 mi ENE 23.0 mph 38.0 mph 0.10 in Rain Light Rain
1:56 AM 39.9 °F 29.7 °F 36.0 °F 86% 29.46 in 1.8 mi ENE 23.0 mph 33.4 mph 0.18 in Rain Light Rain
2:27 AM 39.2 °F 28.7 °F 35.6 °F 87% 29.46 in 1.5 mi ENE 23.0 mph 34.5 mph 0.16 in Rain Light Rain
3:27 AM 39.2 °F 28.7 °F 35.6 °F 87% 29.46 in 2.5 mi ENE 23.0 mph - 0.10 in Rain Light Rain
3:42 AM 39.2 °F 28.3 °F 35.6 °F 87% 29.46 in 4.0 mi ENE 25.3 mph 31.1 mph 0.12 in Rain Light Rain
3:56 AM 39.9 °F 29.5 °F 36.0 °F 86% 29.47 in 4.0 mi ENE 24.2 mph 28.8 mph 0.14 in Rain Light Rain
4:56 AM 39.9 °F 30.0 °F 36.0 °F 86% 29.47 in 7.0 mi ENE 21.9 mph 28.8 mph 0.07 in Rain Light Rain
5:56 AM 39.2 °F 28.5 °F 35.6 °F 87% 29.47 in 4.0 mi ENE 24.2 mph 29.9 mph N/A   Overcast
6:23 AM 39.2 °F 29.6 °F 35.6 °F 87% 29.48 in 2.5 mi ENE 19.6 mph 33.4 mph 0.01 in   Overcast
6:56 AM 38.8 °F 28.3 °F 34.9 °F 86% 29.50 in 2.5 mi ENE 23.0 mph 27.6 mph 0.01 in   Overcast
7:18 AM 37.4 °F 26.9 °F 35.6 °F 93% 29.50 in 3.0 mi East 20.7 mph 28.8 mph 0.00 in Snow Light Snow
7:56 AM 37.9 °F 28.2 °F 34.9 °F 89% 29.53 in 6.0 mi ENE 18.4 mph - 0.00 in Rain Light Rain
8:56 AM 37.4 °F 27.2 °F 35.6 °F 93% 29.52 in 5.0 mi ENE 19.6 mph - N/A Rain Light Rain
9:56 AM 37.9 °F 27.1 °F 34.9 °F 89% 29.54 in 7.0 mi ENE 23.0 mph 27.6 mph 0.01 in Rain Light Rain
10:56 AM 37.9 °F 27.3 °F 34.9 °F 89% 29.56 in 5.0 mi ENE 21.9 mph - 0.00 in Rain Light Rain
11:42 AM 37.4 °F 27.2 °F 35.6 °F 93% 29.57 in 1.8 mi ENE 19.6 mph - 0.00 in Snow Light Snow
11:56 AM 37.4 °F 27.2 °F 35.6 °F 93% 29.57 in 1.5 mi ENE 19.6 mph - N/A Snow Light Snow
12:25 PM 37.4 °F 26.9 °F 35.6 °F 93% 29.56 in 2.0 mi ENE 20.7 mph 25.3 mph 0.00 in Snow Light Snow
12:56 PM 37.9 °F 27.9 °F 34.9 °F 89% 29.57 in 2.0 mi ENE 19.6 mph - 0.00 in Snow Light Snow
1:13 PM 37.4 °F 27.8 °F 35.6 °F 93% 29.57 in 1.8 mi East 17.3 mph - 0.00 in Snow Light Snow
1:41 PM 37.4 °F 27.8 °F 35.6 °F 93% 29.56 in 3.0 mi ENE 17.3 mph 26.5 mph 0.00 in Snow Light Snow
1:56 PM 37.9 °F 27.6 °F 34.9 °F 89% 29.56 in 2.5 mi ENE 20.7 mph 25.3 mph 0.00 in Snow Light Snow
2:15 PM 37.4 °F 27.2 °F 35.6 °F 93% 29.55 in 4.0 mi East 19.6 mph - 0.00 in Snow Light Snow
2:56 PM 37.4 °F 26.9 °F 33.8 °F 87% 29.55 in 3.0 mi ENE 20.7 mph 26.5 mph N/A Snow Light Snow
3:56 PM 36.9 °F 26.2 °F 34.0 °F 89% 29.55 in 2.5 mi ENE 20.7 mph - 0.01 in Snow Light Snow
4:05 PM 37.4 °F 26.9 °F 33.8 °F 87% 29.54 in 1.8 mi ENE 20.7 mph - 0.00 in Snow Light Snow
4:35 PM 37.4 °F 27.5 °F 33.8 °F 87% 29.55 in 3.0 mi ENE 18.4 mph - 0.00 in Snow Light Snow
4:56 PM 36.9 °F 26.8 °F 34.0 °F 89% 29.55 in 2.5 mi ENE 18.4 mph - 0.00 in Snow Light Snow
5:05 PM 37.4 °F 28.5 °F 33.8 °F 87% 29.55 in 1.8 mi East 15.0 mph - 0.01 in Snow Light Snow
5:12 PM 35.6 °F 26.6 °F 33.8 °F 93% 29.55 in 3.0 mi East 13.8 mph - 0.01 in Snow Light Snow
5:18 PM 35.6 °F 26.6 °F 33.8 °F 93% 29.55 in 1.8 mi East 13.8 mph - 0.01 in Snow Light Snow
5:31 PM 35.6 °F 25.5 °F 33.8 °F 93% 29.55 in 3.0 mi ENE 17.3 mph - 0.01 in Snow Light Snow
5:56 PM 35.6 °F 25.2 °F 33.8 °F 93% 29.55 in 5.0 mi ENE 18.4 mph - N/A Snow Light Snow
6:30 PM 35.6 °F 25.9 °F 33.8 °F 93% 29.55 in 3.0 mi East 16.1 mph - 0.00 in Snow Light Snow
6:43 PM 35.6 °F 25.2 °F 33.8 °F 93% 29.55 in 2.5 mi East 18.4 mph - 0.00 in Snow Light Snow
6:56 PM 36.0 °F 26.7 °F 34.0 °F 93% 29.56 in 4.0 mi East 15.0 mph - 0.01 in Snow Light Snow
7:56 PM 36.0 °F 26.0 °F 34.0 °F 93% 29.56 in 6.0 mi ENE 17.3 mph - 0.00 in   Overcast
8:42 PM 35.6 °F 25.5 °F 33.8 °F 93% 29.55 in 7.0 mi East 17.3 mph - 0.01 in Snow Light Snow
8:56 PM 36.9 °F 27.1 °F 34.0 °F 89% 29.55 in 10.0 mi East 17.3 mph - 0.01 in   Overcast
9:56 PM 36.9 °F 26.2 °F 34.0 °F 89% 29.54 in 8.0 mi East 20.7 mph - 0.00 in Snow Light Snow
10:56 PM 36.9 °F 26.5 °F 32.9 °F 86% 29.53 in 9.0 mi East 19.6 mph 26.5 mph 0.00 in Snow Light Snow
11:56 PM 37.4 °F 26.6 °F 33.8 °F 87% 29.53 in 9.0 mi East 21.9 mph - N/A Snow Light Snow